Overview Statistics Trail Chart Weather Telemetry Raw packets
 

This is the latest recevied weather packets stored in our database for station/object LU1MQF-10. If no packets are shown the sender has not sent any weather packets the latest 10 day(s).

<< 7 8 9 10 11 12 13 >>
Time Temp. Humidity Pressure Rain* Wind** Luminosity Snow
1777936751 20° C 34% 1013.7 hPa - - - -
1777936747 20° C 34% 1013.7 hPa - - - -
1777935853 20° C 34% 1013.5 hPa - - - -
1777935847 20° C 34% 1013.5 hPa - - - -
1777934951 20° C 34% 1013.6 hPa - - - -
1777934947 20° C 34% 1013.6 hPa - - - -
1777934058 18.89° C 36% 1013.3 hPa - - - -
1777934047 18.89° C 36% 1013.3 hPa - - - -
1777933151 18.89° C 36% 1013.1 hPa - - - -
1777933146 18.89° C 36% 1013.1 hPa - - - -
1777932251 18.89° C 35% 1013 hPa - - - -
1777932246 18.89° C 35% 1013 hPa - - - -
1777931351 19.44° C 33% 1012.9 hPa - - - -
1777931346 19.44° C 33% 1012.9 hPa - - - -
1777930451 19.44° C 33% 1012.8 hPa - - - -
1777930446 19.44° C 33% 1012.8 hPa - - - -
1777929553 20° C 32% 1012.7 hPa - - - -
1777929546 20° C 32% 1012.7 hPa - - - -
1777928652 20° C 32% 1012.5 hPa - - - -
1777928646 20° C 32% 1012.5 hPa - - - -
1777927751 20° C 31% 1012.4 hPa - - - -
1777927745 20° C 31% 1012.4 hPa - - - -
1777926852 21.11° C 30% 1012.3 hPa - - - -
1777926845 21.11° C 30% 1012.3 hPa - - - -
1777925951 20.56° C 31% 1012.4 hPa - - - -

* Rain since midnight (hover to see other rain measurements)
** Current wind speed in m/s (hover to see current wind gust speed)